LAN535 KLAX-SPJC

Flight info

Callsign LAN535
Flight time 7h 34m
Altitude 37000
Route PNDAH2 OTAYY DCT TIJ UT6 PVR UJ9 ACA UL344 VODIR/N0487F390 UL344 ATATU
Aircraft B789/H-SDE1E2E3FGHIJ2J3J4J5M1RWXY/LB1D1

Departure

Time 2026-04-20 07:48
Airport Los Angeles International Airport (KLAX)

Arrival

Time 2026-04-20 15:22
Airport Jorge Chávez International Airport (SPJC)
Time Latitude Longitude Altitude Speed Heading
2026-04-20 07:22 33.94396 -118.41130 100 ft 0 kts 85°
2026-04-20 07:33 33.94394 -118.41144 101 ft 4 kts 84°
2026-04-20 07:33 33.94391 -118.41177 100 ft 4 kts 83°
2026-04-20 07:34 33.94389 -118.41197 99 ft 4 kts 85°
2026-04-20 07:34 33.94389 -118.41209 100 ft 4 kts 97°
2026-04-20 07:34 33.94395 -118.41231 99 ft 4 kts 140°
2026-04-20 07:35 33.94437 -118.41246 99 ft 1 kts 173°
2026-04-20 07:35 33.94441 -118.41247 99 ft 0 kts 173°
2026-04-20 07:38 33.94440 -118.41246 100 ft 1 kts 173°
2026-04-20 07:39 33.94406 -118.41242 101 ft 9 kts 173°
2026-04-20 07:39 33.94320 -118.41228 100 ft 15 kts 173°
2026-04-20 07:39 33.94221 -118.41214 101 ft 14 kts 172°
2026-04-20 07:39 33.94126 -118.41200 102 ft 13 kts 173°
2026-04-20 07:40 33.94036 -118.41188 101 ft 13 kts 173°
2026-04-20 07:40 33.93950 -118.41174 101 ft 12 kts 173°
2026-04-20 07:40 33.93872 -118.41162 103 ft 11 kts 172°
2026-04-20 07:40 33.93809 -118.41151 105 ft 8 kts 167°
2026-04-20 07:41 33.93779 -118.41127 107 ft 4 kts 128°
2026-04-20 07:41 33.93771 -118.41076 108 ft 11 kts 90°
2026-04-20 07:41 33.93780 -118.40962 107 ft 15 kts 83°
2026-04-20 07:41 33.93793 -118.40832 107 ft 18 kts 83°
2026-04-20 07:42 33.93811 -118.40660 108 ft 22 kts 82°
2026-04-20 07:42 33.93830 -118.40469 108 ft 24 kts 82°
2026-04-20 07:42 33.93851 -118.40266 109 ft 24 kts 82°
2026-04-20 07:42 33.93871 -118.40070 110 ft 23 kts 82°
2026-04-20 07:43 33.93891 -118.39884 109 ft 22 kts 84°
2026-04-20 07:43 33.93910 -118.39698 108 ft 22 kts 82°
2026-04-20 07:43 33.93928 -118.39517 108 ft 22 kts 82°
2026-04-20 07:43 33.93946 -118.39338 106 ft 22 kts 82°
2026-04-20 07:44 33.93964 -118.39161 106 ft 21 kts 83°
2026-04-20 07:44 33.93982 -118.38992 107 ft 20 kts 83°
2026-04-20 07:44 33.93998 -118.38829 107 ft 19 kts 83°
2026-04-20 07:44 33.94014 -118.38672 108 ft 18 kts 83°
2026-04-20 07:45 33.94029 -118.38524 108 ft 17 kts 83°
2026-04-20 07:45 33.94044 -118.38382 108 ft 17 kts 82°
2026-04-20 07:45 33.94058 -118.38243 108 ft 16 kts 83°
2026-04-20 07:45 33.94071 -118.38108 108 ft 16 kts 82°
2026-04-20 07:46 33.94049 -118.38010 111 ft 8 kts 152°
2026-04-20 07:46 33.94017 -118.38003 111 ft 3 kts 185°
2026-04-20 07:46 33.93996 -118.38020 113 ft 6 kts 231°
2026-04-20 07:46 33.93975 -118.38099 115 ft 15 kts 262°
2026-04-20 07:47 33.93950 -118.38365 113 ft 55 kts 263°
2026-04-20 07:47 33.93879 -118.39057 112 ft 111 kts 263°
2026-04-20 07:47 33.93763 -118.40183 114 ft 158 kts 263°
2026-04-20 07:47 33.93626 -118.41619 390 ft 174 kts 267°
2026-04-20 07:48 33.93463 -118.43004 1229 ft 164 kts 260°
2026-04-20 07:48 33.93205 -118.44462 1631 ft 187 kts 253°
2026-04-20 07:48 33.92769 -118.45898 2418 ft 179 kts 245°
2026-04-20 07:48 33.92178 -118.47312 2702 ft 201 kts 238°
2026-04-20 07:49 33.91307 -118.48760 2954 ft 225 kts 230°
2026-04-20 07:49 33.90196 -118.50219 3221 ft 248 kts 226°
2026-04-20 07:49 33.89043 -118.51893 3714 ft 263 kts 230°
2026-04-20 07:49 33.87901 -118.53601 4644 ft 263 kts 229°
2026-04-20 07:50 33.87099 -118.54698 5168 ft 264 kts 220°
2026-04-20 07:50 33.84898 -118.55885 6246 ft 263 kts 186°
2026-04-20 07:50 33.83081 -118.55698 6983 ft 265 kts 169°
2026-04-20 07:50 33.81264 -118.55236 7754 ft 268 kts 167°
2026-04-20 07:51 33.79447 -118.54711 8505 ft 271 kts 167°
2026-04-20 07:51 33.78225 -118.54368 9027 ft 272 kts 168°
2026-04-20 07:51 33.76369 -118.53871 9794 ft 275 kts 168°
2026-04-20 07:51 33.74478 -118.53369 10277 ft 288 kts 168°
2026-04-20 07:52 33.72428 -118.52816 10334 ft 315 kts 167°
2026-04-20 07:52 33.70370 -118.51706 10491 ft 337 kts 144°
2026-04-20 07:52 33.68722 -118.49684 11193 ft 343 kts 124°
2026-04-20 07:52 33.67217 -118.46305 12013 ft 350 kts 120°
2026-04-20 07:53 33.66470 -118.44539 12471 ft 353 kts 119°
2026-04-20 07:53 33.65356 -118.41901 13130 ft 356 kts 120°
2026-04-20 07:53 33.64207 -118.39235 13788 ft 360 kts 120°
2026-04-20 07:53 33.63044 -118.36554 14354 ft 364 kts 120°
2026-04-20 07:54 33.61887 -118.33870 14898 ft 369 kts 120°
2026-04-20 07:54 33.60705 -118.31121 15436 ft 373 kts 119°
2026-04-20 07:54 33.59505 -118.28338 15963 ft 378 kts 119°
2026-04-20 07:54 33.58289 -118.25527 16489 ft 382 kts 119°
2026-04-20 07:55 33.57054 -118.22671 17003 ft 386 kts 119°
2026-04-20 07:55 33.55811 -118.19796 17515 ft 391 kts 119°
2026-04-20 07:55 33.54551 -118.16886 18034 ft 395 kts 119°
2026-04-20 07:55 33.53278 -118.13947 18494 ft 399 kts 119°
2026-04-20 07:56 33.52003 -118.10985 18933 ft 402 kts 118°
2026-04-20 07:56 33.50718 -118.07985 19374 ft 406 kts 118°
2026-04-20 07:56 33.49420 -118.04967 19802 ft 409 kts 119°
2026-04-20 07:56 33.48107 -118.01928 20259 ft 412 kts 118°
2026-04-20 07:57 33.46612 -117.99009 20645 ft 412 kts 133°
2026-04-20 07:57 33.44577 -117.96598 21005 ft 414 kts 140°
2026-04-20 07:57 33.42419 -117.94303 21412 ft 416 kts 141°
2026-04-20 07:57 33.40223 -117.92019 21809 ft 419 kts 140°
2026-04-20 07:58 33.38032 -117.89700 22190 ft 422 kts 140°
2026-04-20 07:58 33.35838 -117.87349 22566 ft 426 kts 140°
2026-04-20 07:58 33.33618 -117.84989 22939 ft 428 kts 140°
2026-04-20 07:58 33.31374 -117.82622 23303 ft 431 kts 140°
2026-04-20 07:59 33.29140 -117.80263 23653 ft 434 kts 140°
2026-04-20 07:59 33.26842 -117.77828 23943 ft 437 kts 140°
2026-04-20 07:59 33.24591 -117.75444 24232 ft 439 kts 140°
2026-04-20 07:59 33.22292 -117.73017 24522 ft 442 kts 140°
2026-04-20 08:00 33.19976 -117.70576 24808 ft 444 kts 140°
2026-04-20 08:00 33.17656 -117.68128 25081 ft 447 kts 140°
2026-04-20 08:00 33.15345 -117.65627 25337 ft 449 kts 137°
2026-04-20 08:00 33.13068 -117.63046 25590 ft 452 kts 139°
2026-04-20 08:01 33.10742 -117.60517 25860 ft 454 kts 139°
2026-04-20 08:01 33.08417 -117.57957 26137 ft 457 kts 138°
2026-04-20 08:01 33.06098 -117.55350 26422 ft 459 kts 138°
2026-04-20 08:01 33.03761 -117.52734 26673 ft 462 kts 138°
2026-04-20 08:02 33.01399 -117.50123 26946 ft 464 kts 138°
2026-04-20 08:02 32.99024 -117.47500 27227 ft 467 kts 138°
2026-04-20 08:02 32.96672 -117.44888 27495 ft 469 kts 138°
2026-04-20 08:02 32.94279 -117.42230 27764 ft 472 kts 138°
2026-04-20 08:03 32.91867 -117.39562 28037 ft 474 kts 138°
2026-04-20 08:03 32.89441 -117.36883 28323 ft 477 kts 138°
2026-04-20 08:03 32.87001 -117.34187 28607 ft 480 kts 138°
2026-04-20 08:03 32.84553 -117.31481 28877 ft 482 kts 138°
2026-04-20 08:04 32.82087 -117.28758 29172 ft 485 kts 138°
2026-04-20 08:04 32.79603 -117.26022 29450 ft 487 kts 138°
2026-04-20 08:04 32.77112 -117.23278 29727 ft 490 kts 138°
2026-04-20 08:04 32.74602 -117.20514 29976 ft 493 kts 138°
2026-04-20 08:05 32.72085 -117.17745 30238 ft 495 kts 138°
2026-04-20 08:05 32.69550 -117.14960 30503 ft 497 kts 137°
2026-04-20 08:05 32.67010 -117.12167 30750 ft 498 kts 136°
2026-04-20 08:05 32.64624 -117.09170 30957 ft 501 kts 132°
2026-04-20 08:06 32.62286 -117.06079 31217 ft 503 kts 132°
2026-04-20 08:06 32.59947 -117.02988 31458 ft 505 kts 132°
2026-04-20 08:06 32.57615 -116.99940 31722 ft 506 kts 133°
2026-04-20 08:06 32.55237 -116.96840 31995 ft 508 kts 133°
2026-04-20 08:07 32.52687 -116.93939 32235 ft 508 kts 142°
2026-04-20 08:07 32.49936 -116.91287 32418 ft 511 kts 142°
2026-04-20 08:07 32.47159 -116.88645 32683 ft 513 kts 142°
2026-04-20 08:07 32.44384 -116.85987 32930 ft 514 kts 141°
2026-04-20 08:08 32.41604 -116.83298 33163 ft 517 kts 141°
2026-04-20 08:08 32.38810 -116.80607 33384 ft 519 kts 142°
2026-04-20 08:08 32.36001 -116.77920 33642 ft 520 kts 142°
2026-04-20 08:08 32.33183 -116.75226 33908 ft 521 kts 142°
2026-04-20 08:09 32.30372 -116.72530 34209 ft 521 kts 142°
2026-04-20 08:09 32.27558 -116.69831 34496 ft 520 kts 142°
2026-04-20 08:09 32.24750 -116.67148 34793 ft 519 kts 142°
2026-04-20 08:09 32.21939 -116.64466 35072 ft 518 kts 142°
2026-04-20 08:10 32.19171 -116.61823 35347 ft 518 kts 143°
2026-04-20 08:10 32.16337 -116.59117 35621 ft 517 kts 143°
2026-04-20 08:10 32.13623 -116.56423 35878 ft 516 kts 141°
2026-04-20 08:10 32.10885 -116.53686 36098 ft 516 kts 143°
2026-04-20 08:11 32.08114 -116.50990 36352 ft 515 kts 143°
2026-04-20 08:11 32.05365 -116.48268 36614 ft 515 kts 142°
2026-04-20 08:11 32.02646 -116.45528 36880 ft 514 kts 142°
2026-04-20 08:11 31.99918 -116.42803 37040 ft 516 kts 143°
2026-04-20 08:12 31.94403 -116.37363 37040 ft 515 kts 143°
2026-04-20 08:12 31.88955 -116.31945 37045 ft 512 kts 143°
2026-04-20 08:13 31.83499 -116.26560 37042 ft 512 kts 143°
2026-04-20 08:13 31.78075 -116.21198 37034 ft 512 kts 143°
2026-04-20 08:14 31.72539 -116.15946 37043 ft 510 kts 147°
2026-04-20 08:14 31.66872 -116.10864 37037 ft 513 kts 146°
2026-04-20 08:15 31.61183 -116.05810 37040 ft 513 kts 146°
2026-04-20 08:15 31.55486 -116.00746 37033 ft 514 kts 146°
2026-04-20 08:16 31.49787 -115.95686 37040 ft 514 kts 146°
2026-04-20 08:16 31.44079 -115.90632 37034 ft 514 kts 146°
2026-04-20 08:17 31.38377 -115.85584 37026 ft 513 kts 146°
2026-04-20 08:17 31.32675 -115.80551 37030 ft 513 kts 146°
2026-04-20 08:18 31.27005 -115.75549 37019 ft 514 kts 147°
2026-04-20 08:18 31.21299 -115.70525 37013 ft 513 kts 147°
2026-04-20 08:19 31.15589 -115.65505 37015 ft 513 kts 147°
2026-04-20 08:19 31.09874 -115.60489 37006 ft 513 kts 147°
2026-04-20 08:20 31.04166 -115.55486 37004 ft 513 kts 147°
2026-04-20 08:20 30.98456 -115.50490 37000 ft 513 kts 147°
2026-04-20 08:21 30.92738 -115.45493 36997 ft 513 kts 147°
2026-04-20 08:21 30.87064 -115.40543 36988 ft 513 kts 147°
2026-04-20 08:22 30.81354 -115.35569 36985 ft 512 kts 147°
2026-04-20 08:22 30.75783 -115.30411 36998 ft 512 kts 146°
2026-04-20 08:23 30.70169 -115.25276 36995 ft 512 kts 145°
2026-04-20 08:23 30.64609 -115.20110 36988 ft 512 kts 146°
2026-04-20 08:24 30.59024 -115.14991 36981 ft 512 kts 145°
2026-04-20 08:24 30.53484 -115.09880 36977 ft 511 kts 146°
2026-04-20 08:25 30.47907 -115.04767 36984 ft 511 kts 146°
2026-04-20 08:25 30.42324 -114.99643 36985 ft 511 kts 146°
2026-04-20 08:26 30.36741 -114.94534 36986 ft 512 kts 146°
2026-04-20 08:26 30.31151 -114.89422 36980 ft 511 kts 146°
2026-04-20 08:27 30.25610 -114.84365 36979 ft 510 kts 146°
2026-04-20 08:27 30.20038 -114.79285 36973 ft 510 kts 146°
2026-04-20 08:28 30.14454 -114.74203 36976 ft 511 kts 146°
2026-04-20 08:28 30.08863 -114.69122 36976 ft 510 kts 146°
2026-04-20 08:29 30.03280 -114.64055 36979 ft 510 kts 146°
2026-04-20 08:29 29.97731 -114.59028 36976 ft 510 kts 146°
2026-04-20 08:30 29.92149 -114.53977 36980 ft 510 kts 146°
2026-04-20 08:30 29.86561 -114.48929 36976 ft 509 kts 146°
2026-04-20 08:31 29.80973 -114.43888 36976 ft 509 kts 146°
2026-04-20 08:31 29.75384 -114.38853 36979 ft 509 kts 146°
2026-04-20 08:32 29.69832 -114.33858 36982 ft 509 kts 146°
2026-04-20 08:32 29.64249 -114.28844 36977 ft 509 kts 146°
2026-04-20 08:33 29.55864 -114.21326 36982 ft 510 kts 147°
2026-04-20 08:34 29.50267 -114.16317 36988 ft 509 kts 147°
2026-04-20 08:34 29.44677 -114.11321 36992 ft 509 kts 147°
2026-04-20 08:35 29.39088 -114.06333 37001 ft 509 kts 147°
2026-04-20 08:35 29.33496 -114.01349 36995 ft 508 kts 147°
2026-04-20 08:36 29.27907 -113.96377 37001 ft 509 kts 147°
2026-04-20 08:36 29.22312 -113.91404 37007 ft 509 kts 147°
2026-04-20 08:37 29.16746 -113.86465 37001 ft 509 kts 147°
2026-04-20 08:37 29.11142 -113.81501 37008 ft 510 kts 147°
2026-04-20 08:38 29.05525 -113.76530 37006 ft 510 kts 147°
2026-04-20 08:38 28.99912 -113.71571 37004 ft 511 kts 147°
2026-04-20 08:39 28.94293 -113.66613 37004 ft 510 kts 147°
2026-04-20 08:39 28.88668 -113.61657 37000 ft 510 kts 147°
2026-04-20 08:40 28.83991 -113.57541 36993 ft 511 kts 147°
2026-04-20 08:40 28.78356 -113.52591 36996 ft 511 kts 148°
2026-04-20 08:41 28.72723 -113.47647 36996 ft 511 kts 148°
2026-04-20 08:41 28.67082 -113.42703 36986 ft 511 kts 148°
2026-04-20 08:42 28.61469 -113.37792 36989 ft 511 kts 148°
2026-04-20 08:42 28.55817 -113.32852 36992 ft 511 kts 148°
2026-04-20 08:43 28.50160 -113.27916 36989 ft 512 kts 148°
2026-04-20 08:43 28.44552 -113.23028 36997 ft 511 kts 148°
2026-04-20 08:44 28.38903 -113.18112 36991 ft 511 kts 148°
2026-04-20 08:44 28.33252 -113.13201 36995 ft 512 kts 148°
2026-04-20 08:45 28.27596 -113.08292 36997 ft 512 kts 148°
2026-04-20 08:45 28.21939 -113.03390 36991 ft 512 kts 148°
2026-04-20 08:46 28.16272 -112.98484 36992 ft 511 kts 148°
2026-04-20 08:46 28.10611 -112.93593 36992 ft 513 kts 148°
2026-04-20 08:47 28.04923 -112.88681 36994 ft 514 kts 148°
2026-04-20 08:47 27.99236 -112.83780 36987 ft 514 kts 148°
2026-04-20 08:48 27.93535 -112.78872 36980 ft 514 kts 148°
2026-04-20 08:48 27.87875 -112.74007 36978 ft 515 kts 148°
2026-04-20 08:49 27.82164 -112.69104 36977 ft 515 kts 148°
2026-04-20 08:49 27.76441 -112.64198 36975 ft 516 kts 148°
2026-04-20 08:50 27.70725 -112.59304 36975 ft 516 kts 148°
2026-04-20 08:50 27.64993 -112.54404 36976 ft 516 kts 149°
2026-04-20 08:51 27.59309 -112.49550 36979 ft 516 kts 149°
2026-04-20 08:51 27.53598 -112.44680 36982 ft 514 kts 149°
2026-04-20 08:52 27.47894 -112.39824 36979 ft 515 kts 149°
2026-04-20 08:52 27.42170 -112.34955 36980 ft 515 kts 149°
2026-04-20 08:53 27.36444 -112.30092 36978 ft 515 kts 149°
2026-04-20 08:53 27.30946 -112.24861 37008 ft 523 kts 140°
2026-04-20 08:54 27.25870 -112.19049 36985 ft 524 kts 140°
2026-04-20 08:54 27.20765 -112.13201 36987 ft 525 kts 140°
2026-04-20 08:55 27.15640 -112.07347 36981 ft 525 kts 140°
2026-04-20 08:55 27.10521 -112.01501 36977 ft 525 kts 140°
2026-04-20 08:56 27.05399 -111.95664 36963 ft 524 kts 140°
2026-04-20 08:56 27.00281 -111.89839 36962 ft 524 kts 140°
2026-04-20 08:57 26.95160 -111.84018 36959 ft 524 kts 140°
2026-04-20 08:57 26.90034 -111.78199 36954 ft 525 kts 140°
2026-04-20 08:58 26.84903 -111.72382 36962 ft 524 kts 140°
2026-04-20 08:58 26.79775 -111.66578 36959 ft 524 kts 140°
2026-04-20 08:59 26.74677 -111.60815 36963 ft 523 kts 140°
2026-04-20 08:59 26.69554 -111.55032 36956 ft 524 kts 141°
2026-04-20 09:00 26.64414 -111.49236 36959 ft 523 kts 141°
2026-04-20 09:00 26.59292 -111.43469 36955 ft 522 kts 141°
2026-04-20 09:01 26.54169 -111.37710 36958 ft 523 kts 141°
2026-04-20 09:01 26.49061 -111.31975 36954 ft 523 kts 141°
2026-04-20 09:02 26.43922 -111.26212 36952 ft 523 kts 141°
2026-04-20 09:02 26.38794 -111.20469 36958 ft 522 kts 141°
2026-04-20 09:03 26.33667 -111.14735 36953 ft 522 kts 141°
2026-04-20 09:03 26.28532 -111.09000 36950 ft 522 kts 141°
2026-04-20 09:04 26.23406 -111.03283 36953 ft 522 kts 141°
2026-04-20 09:04 26.18269 -110.97560 36955 ft 523 kts 141°
2026-04-20 09:05 26.13126 -110.91838 36955 ft 524 kts 141°
2026-04-20 09:05 26.07998 -110.86139 36956 ft 523 kts 141°
2026-04-20 09:06 26.02858 -110.80436 36952 ft 522 kts 141°
2026-04-20 09:06 25.97719 -110.74741 36958 ft 521 kts 141°
2026-04-20 09:07 25.92578 -110.69052 36952 ft 521 kts 141°
2026-04-20 09:07 25.87440 -110.63372 36954 ft 521 kts 141°
2026-04-20 09:08 25.82288 -110.57686 36964 ft 522 kts 141°
2026-04-20 09:08 25.77174 -110.52048 36963 ft 521 kts 141°
2026-04-20 09:09 25.72028 -110.46382 36950 ft 521 kts 141°
2026-04-20 09:09 25.66882 -110.40723 36954 ft 521 kts 141°
2026-04-20 09:10 25.61735 -110.35072 36953 ft 521 kts 141°
2026-04-20 09:10 25.56582 -110.29419 36952 ft 521 kts 141°
2026-04-20 09:11 25.51434 -110.23780 36955 ft 521 kts 141°
2026-04-20 09:11 25.46279 -110.18141 36953 ft 521 kts 141°
2026-04-20 09:12 25.41122 -110.12507 36953 ft 521 kts 141°
2026-04-20 09:12 25.35966 -110.06881 36953 ft 521 kts 141°
2026-04-20 09:13 25.30801 -110.01252 36956 ft 521 kts 141°
2026-04-20 09:13 25.25641 -109.95636 36964 ft 520 kts 141°
2026-04-20 09:14 25.20525 -109.90074 36959 ft 520 kts 141°
2026-04-20 09:14 25.15363 -109.84471 36960 ft 520 kts 141°
2026-04-20 09:15 25.10204 -109.78875 36961 ft 520 kts 141°
2026-04-20 09:15 25.05047 -109.73291 36960 ft 519 kts 142°
2026-04-20 09:16 24.99887 -109.67710 36966 ft 519 kts 142°
2026-04-20 09:16 24.94713 -109.62121 36970 ft 520 kts 142°
2026-04-20 09:17 24.89578 -109.56585 36964 ft 519 kts 142°
2026-04-20 09:17 24.84411 -109.51020 36963 ft 520 kts 142°
2026-04-20 09:18 24.79228 -109.45444 36978 ft 519 kts 142°
2026-04-20 09:18 24.74061 -109.39894 36974 ft 519 kts 142°
2026-04-20 09:19 24.68883 -109.34337 36972 ft 519 kts 142°
2026-04-20 09:19 24.63740 -109.28825 36968 ft 519 kts 142°
2026-04-20 09:20 24.58541 -109.23260 36961 ft 519 kts 142°
2026-04-20 09:20 24.53364 -109.17726 36963 ft 519 kts 142°
2026-04-20 09:21 24.48218 -109.12232 36964 ft 520 kts 142°
2026-04-20 09:21 24.43023 -109.06691 36959 ft 520 kts 142°
2026-04-20 09:22 24.37838 -109.01166 36957 ft 519 kts 142°
2026-04-20 09:22 24.32654 -108.95652 36958 ft 519 kts 142°
2026-04-20 09:23 24.27475 -108.90147 36958 ft 518 kts 142°
2026-04-20 09:23 24.22298 -108.84649 36959 ft 518 kts 142°
2026-04-20 09:24 24.17119 -108.79156 36962 ft 518 kts 142°
2026-04-20 09:24 24.11974 -108.73704 36956 ft 517 kts 142°
2026-04-20 09:25 24.06796 -108.68226 36963 ft 517 kts 142°
2026-04-20 09:25 24.01629 -108.62763 36959 ft 516 kts 142°
2026-04-20 09:26 23.96469 -108.57316 36959 ft 515 kts 142°
2026-04-20 09:26 23.91314 -108.51880 36962 ft 514 kts 142°
2026-04-20 09:27 23.86162 -108.46455 36959 ft 514 kts 142°
2026-04-20 09:27 23.81015 -108.41039 36958 ft 513 kts 142°
2026-04-20 09:28 23.76736 -108.36543 36958 ft 514 kts 142°
2026-04-20 09:28 23.70753 -108.30263 36960 ft 513 kts 142°
2026-04-20 09:29 23.65595 -108.24855 36956 ft 513 kts 142°
2026-04-20 09:29 23.61287 -108.20342 36962 ft 513 kts 142°
2026-04-20 09:30 23.56165 -108.14988 36963 ft 513 kts 142°
2026-04-20 09:30 23.51016 -108.09608 36959 ft 513 kts 142°
2026-04-20 09:31 23.45852 -108.04222 36968 ft 513 kts 142°
2026-04-20 09:31 23.40683 -107.98834 36964 ft 513 kts 142°
2026-04-20 09:32 23.35516 -107.93456 36965 ft 514 kts 142°
2026-04-20 09:32 23.30378 -107.88112 36964 ft 514 kts 142°
2026-04-20 09:33 23.25216 -107.82751 36959 ft 513 kts 142°
2026-04-20 09:33 23.20041 -107.77383 36964 ft 513 kts 142°
2026-04-20 09:34 23.14877 -107.72031 36962 ft 513 kts 142°
2026-04-20 09:34 23.07130 -107.64015 36961 ft 512 kts 142°
2026-04-20 09:35 23.01969 -107.58681 36966 ft 512 kts 142°
2026-04-20 09:35 22.96803 -107.53350 36967 ft 512 kts 142°
2026-04-20 09:36 22.91636 -107.48022 36966 ft 512 kts 142°
2026-04-20 09:36 22.86493 -107.42725 36962 ft 513 kts 142°
2026-04-20 09:37 22.81312 -107.37395 36966 ft 515 kts 142°
2026-04-20 09:37 22.76077 -107.32014 36968 ft 516 kts 142°
2026-04-20 09:38 22.70892 -107.26692 36967 ft 516 kts 142°
2026-04-20 09:38 22.65678 -107.21345 36965 ft 516 kts 142°
2026-04-20 09:39 22.60466 -107.16007 36968 ft 515 kts 142°
2026-04-20 09:39 22.55259 -107.10679 36966 ft 516 kts 142°
2026-04-20 09:40 22.50040 -107.05345 36976 ft 516 kts 142°
2026-04-20 09:40 22.44822 -107.00017 36972 ft 516 kts 142°
2026-04-20 09:41 22.39634 -106.94726 36969 ft 516 kts 142°
2026-04-20 09:41 22.34412 -106.89407 36965 ft 515 kts 142°
2026-04-20 09:42 22.29185 -106.84088 36963 ft 515 kts 142°
2026-04-20 09:42 22.23973 -106.78789 36958 ft 514 kts 142°
2026-04-20 09:43 22.18759 -106.73495 36962 ft 514 kts 142°
2026-04-20 09:43 22.13588 -106.68249 36960 ft 513 kts 142°
2026-04-20 09:44 22.08387 -106.62980 36956 ft 512 kts 142°
2026-04-20 09:44 22.03194 -106.57721 36961 ft 511 kts 142°
2026-04-20 09:45 21.98009 -106.52476 36959 ft 510 kts 142°
2026-04-20 09:45 21.92831 -106.47245 36962 ft 510 kts 142°
2026-04-20 09:46 21.87669 -106.42033 36958 ft 508 kts 142°
2026-04-20 09:46 21.82546 -106.36868 36963 ft 507 kts 142°
2026-04-20 09:47 21.77401 -106.31685 36958 ft 506 kts 142°
2026-04-20 09:47 21.72262 -106.26513 36959 ft 505 kts 142°
2026-04-20 09:48 21.67137 -106.21361 36956 ft 504 kts 142°
2026-04-20 09:48 21.62012 -106.16215 36956 ft 504 kts 142°
2026-04-20 09:49 21.56881 -106.11068 36957 ft 505 kts 142°
2026-04-20 09:49 21.51749 -106.05924 36956 ft 504 kts 142°
2026-04-20 09:50 21.46612 -106.00781 36954 ft 504 kts 142°
2026-04-20 09:50 21.41484 -105.95652 36948 ft 503 kts 143°
2026-04-20 09:51 21.36384 -105.90556 36953 ft 503 kts 143°
2026-04-20 09:51 21.31232 -105.85414 36950 ft 503 kts 143°
2026-04-20 09:52 21.26138 -105.80334 36949 ft 503 kts 143°
2026-04-20 09:52 21.21010 -105.75233 36950 ft 502 kts 143°
2026-04-20 09:53 21.15877 -105.70134 36950 ft 503 kts 143°
2026-04-20 09:53 21.10742 -105.65036 36950 ft 503 kts 143°
2026-04-20 09:54 21.05607 -105.59944 36947 ft 502 kts 143°
2026-04-20 09:54 21.00481 -105.54865 36949 ft 502 kts 143°
2026-04-20 09:55 20.95384 -105.49815 36951 ft 502 kts 143°
2026-04-20 09:55 20.90259 -105.44738 36960 ft 502 kts 143°
2026-04-20 09:56 20.85124 -105.39660 36985 ft 503 kts 143°
2026-04-20 09:56 20.79992 -105.34587 36991 ft 503 kts 143°
2026-04-20 09:57 20.74848 -105.29509 36992 ft 502 kts 143°
2026-04-20 09:57 20.69715 -105.24442 36989 ft 502 kts 141°
2026-04-20 09:58 20.64973 -105.18894 36997 ft 506 kts 138°
2026-04-20 09:58 20.60278 -105.13352 37000 ft 507 kts 137°
2026-04-20 09:59 20.55571 -105.07745 37006 ft 507 kts 137°
2026-04-20 09:59 20.50861 -105.02175 37054 ft 504 kts 138°
2026-04-20 10:00 20.46174 -104.96620 37075 ft 504 kts 137°
2026-04-20 10:00 20.41482 -104.91072 37082 ft 503 kts 138°
2026-04-20 10:01 20.36800 -104.85538 37077 ft 502 kts 137°
2026-04-20 10:01 20.32110 -104.80003 37075 ft 503 kts 137°
2026-04-20 10:02 20.27423 -104.74474 37072 ft 503 kts 137°
2026-04-20 10:02 20.22725 -104.68940 37067 ft 503 kts 137°
2026-04-20 10:03 20.18039 -104.63423 37063 ft 502 kts 138°
2026-04-20 10:03 20.13359 -104.57919 37051 ft 501 kts 138°
2026-04-20 10:04 20.08696 -104.52444 37062 ft 502 kts 137°
2026-04-20 10:04 20.04018 -104.46952 37061 ft 500 kts 137°
2026-04-20 10:05 19.99340 -104.41469 37057 ft 500 kts 137°
2026-04-20 10:05 19.94664 -104.35992 37057 ft 500 kts 137°
2026-04-20 10:06 19.89974 -104.30504 37052 ft 501 kts 137°
2026-04-20 10:06 19.85286 -104.25023 37051 ft 501 kts 137°
2026-04-20 10:07 19.80586 -104.19534 37050 ft 502 kts 137°
2026-04-20 10:07 19.75891 -104.14051 37041 ft 502 kts 137°
2026-04-20 10:08 19.71210 -104.08594 37042 ft 502 kts 137°
2026-04-20 10:08 19.66509 -104.03114 37050 ft 501 kts 137°
2026-04-20 10:09 19.61807 -103.97647 37052 ft 501 kts 137°
2026-04-20 10:09 19.57103 -103.92179 37046 ft 502 kts 137°
2026-04-20 10:10 19.52391 -103.86707 37041 ft 502 kts 137°
2026-04-20 10:10 19.47682 -103.81243 37033 ft 502 kts 137°
2026-04-20 10:11 19.42999 -103.75816 37024 ft 502 kts 137°
2026-04-20 10:11 19.38278 -103.70349 37021 ft 502 kts 137°
2026-04-20 10:12 19.33565 -103.64896 37017 ft 501 kts 137°
2026-04-20 10:12 19.28853 -103.59449 37013 ft 501 kts 137°
2026-04-20 10:13 19.24340 -103.53810 37022 ft 501 kts 134°
2026-04-20 10:13 19.19865 -103.48149 37018 ft 502 kts 134°
2026-04-20 10:14 19.16180 -103.43417 37019 ft 501 kts 134°
2026-04-20 10:14 19.10997 -103.36823 37023 ft 501 kts 134°
2026-04-20 10:15 19.06550 -103.31148 37021 ft 501 kts 134°
2026-04-20 10:15 19.02845 -103.26436 37024 ft 500 kts 134°
2026-04-20 10:16 18.98398 -103.20781 37029 ft 501 kts 133°
2026-04-20 10:16 18.93943 -103.15119 37028 ft 500 kts 134°
2026-04-20 10:17 18.89490 -103.09467 37024 ft 500 kts 133°
2026-04-20 10:17 18.85047 -103.03833 37026 ft 499 kts 134°
2026-04-20 10:18 18.80604 -102.98203 37034 ft 499 kts 133°
2026-04-20 10:18 18.76158 -102.92576 37034 ft 500 kts 133°
2026-04-20 10:19 18.71700 -102.86937 37036 ft 500 kts 133°
2026-04-20 10:19 18.67246 -102.81309 37037 ft 499 kts 133°
2026-04-20 10:20 18.62788 -102.75681 37033 ft 500 kts 133°
2026-04-20 10:20 18.58351 -102.70084 37030 ft 500 kts 133°
2026-04-20 10:21 18.53890 -102.64463 37028 ft 500 kts 133°
2026-04-20 10:21 18.49427 -102.58842 37021 ft 499 kts 133°
2026-04-20 10:22 18.44970 -102.53237 37018 ft 499 kts 133°
2026-04-20 10:22 18.40508 -102.47628 37013 ft 499 kts 133°
2026-04-20 10:23 18.36039 -102.42016 37006 ft 499 kts 133°
2026-04-20 10:23 18.31574 -102.36415 37004 ft 499 kts 133°
2026-04-20 10:24 18.27141 -102.30857 36992 ft 499 kts 133°
2026-04-20 10:24 18.22674 -102.25263 36989 ft 499 kts 133°
2026-04-20 10:25 18.18209 -102.19675 36982 ft 499 kts 133°
2026-04-20 10:25 18.13735 -102.14083 36977 ft 499 kts 133°
2026-04-20 10:26 18.09255 -102.08489 36974 ft 499 kts 133°
2026-04-20 10:26 18.04786 -102.02914 36964 ft 499 kts 133°
2026-04-20 10:27 18.00342 -101.97376 36956 ft 498 kts 133°
2026-04-20 10:27 17.95881 -101.91820 36958 ft 498 kts 133°
2026-04-20 10:28 17.91414 -101.86263 36958 ft 497 kts 133°
2026-04-20 10:28 17.86956 -101.80716 36949 ft 497 kts 133°
2026-04-20 10:29 17.82488 -101.75163 36952 ft 498 kts 133°
2026-04-20 10:29 17.78026 -101.69621 36950 ft 497 kts 133°
2026-04-20 10:30 17.73565 -101.64085 36951 ft 496 kts 133°
2026-04-20 10:30 17.69106 -101.58558 36945 ft 495 kts 133°
2026-04-20 10:31 17.64651 -101.53038 36944 ft 495 kts 133°
2026-04-20 10:31 17.60315 -101.47433 36989 ft 497 kts 124°
2026-04-20 10:32 17.57069 -101.40983 36954 ft 501 kts 119°
2026-04-20 10:32 17.53922 -101.34458 36951 ft 501 kts 120°
2026-04-20 10:33 17.50760 -101.27957 36957 ft 499 kts 119°
2026-04-20 10:33 17.47646 -101.21532 36954 ft 497 kts 120°
2026-04-20 10:34 17.44508 -101.15084 36953 ft 497 kts 120°
2026-04-20 10:35 17.39802 -101.05411 36952 ft 497 kts 120°
2026-04-20 10:35 17.36659 -100.98959 36950 ft 496 kts 120°
2026-04-20 10:36 17.33521 -100.92526 36949 ft 495 kts 120°
2026-04-20 10:36 17.30386 -100.86106 36947 ft 495 kts 120°
2026-04-20 10:37 17.27249 -100.79686 36947 ft 496 kts 120°
2026-04-20 10:37 17.24109 -100.73267 36950 ft 495 kts 120°
2026-04-20 10:38 17.20969 -100.66854 36947 ft 495 kts 120°
2026-04-20 10:38 17.17844 -100.60479 36946 ft 496 kts 120°
2026-04-20 10:39 17.14696 -100.54062 36942 ft 495 kts 119°
2026-04-20 10:39 17.11551 -100.47657 36944 ft 495 kts 120°
2026-04-20 10:40 17.08402 -100.41252 36942 ft 495 kts 119°
2026-04-20 10:40 17.05250 -100.34844 36941 ft 496 kts 119°
2026-04-20 10:41 17.02092 -100.28433 36940 ft 496 kts 120°
2026-04-20 10:41 16.98926 -100.22011 36942 ft 496 kts 119°
2026-04-20 10:42 16.95781 -100.15638 36940 ft 496 kts 119°
2026-04-20 10:42 16.92613 -100.09226 36939 ft 496 kts 119°
2026-04-20 10:43 16.89455 -100.02841 36931 ft 495 kts 119°
2026-04-20 10:43 16.86292 -99.96453 36927 ft 495 kts 119°
2026-04-20 10:44 16.83133 -99.90077 36927 ft 495 kts 119°
2026-04-20 10:44 16.79965 -99.83691 36927 ft 495 kts 119°
2026-04-20 10:45 16.76751 -99.77348 36949 ft 492 kts 126°
2026-04-20 10:45 16.74697 -99.74570 36942 ft 489 kts 137°
2026-04-20 10:45 16.72201 -99.72180 36940 ft 487 kts 141°
2026-04-20 10:46 16.67012 -99.67612 36921 ft 488 kts 142°
2026-04-20 10:46 16.61824 -99.63047 36918 ft 488 kts 141°
2026-04-20 10:47 16.56639 -99.58483 36922 ft 487 kts 142°
2026-04-20 10:47 16.51446 -99.53921 36917 ft 488 kts 141°
2026-04-20 10:48 16.46295 -99.49394 36917 ft 487 kts 141°
2026-04-20 10:48 16.41114 -99.44849 36915 ft 487 kts 141°
2026-04-20 10:49 16.35929 -99.40299 36935 ft 487 kts 141°
2026-04-20 10:49 16.30735 -99.35748 36918 ft 487 kts 141°
2026-04-20 10:50 16.25549 -99.31206 36918 ft 487 kts 141°
2026-04-20 10:50 16.20362 -99.26665 36921 ft 487 kts 141°
2026-04-20 10:51 16.15186 -99.22139 36921 ft 488 kts 141°
2026-04-20 10:51 16.09980 -99.17605 36935 ft 488 kts 142°
2026-04-20 10:52 16.04700 -99.13188 36926 ft 487 kts 142°
2026-04-20 10:52 15.99446 -99.08713 36938 ft 488 kts 142°
2026-04-20 10:53 15.94171 -99.04263 36926 ft 487 kts 142°
2026-04-20 10:53 15.88917 -98.99816 36923 ft 487 kts 142°
2026-04-20 10:54 15.83668 -98.95383 36920 ft 486 kts 142°
2026-04-20 10:54 15.78408 -98.90943 36919 ft 487 kts 142°
2026-04-20 10:55 15.73187 -98.86538 36927 ft 487 kts 142°
2026-04-20 10:55 15.67936 -98.82112 36919 ft 486 kts 142°
2026-04-20 10:56 15.62680 -98.77684 36920 ft 486 kts 142°
2026-04-20 10:56 15.57420 -98.73255 36919 ft 486 kts 142°
2026-04-20 10:57 15.52200 -98.68863 36919 ft 487 kts 142°
2026-04-20 10:57 15.46931 -98.64434 36928 ft 488 kts 142°
2026-04-20 10:58 15.41651 -98.59998 36926 ft 488 kts 142°
2026-04-20 10:58 15.36383 -98.55575 36931 ft 487 kts 142°
2026-04-20 10:59 15.31116 -98.51155 36934 ft 487 kts 142°
2026-04-20 10:59 15.25855 -98.46744 36924 ft 487 kts 142°
2026-04-20 11:00 15.20584 -98.42328 36929 ft 488 kts 142°
2026-04-20 11:00 15.15302 -98.37904 36932 ft 488 kts 142°
2026-04-20 11:01 15.10920 -98.34237 36929 ft 487 kts 142°
2026-04-20 11:01 15.05639 -98.29821 36937 ft 488 kts 142°
2026-04-20 11:02 15.00361 -98.25409 36930 ft 487 kts 142°
2026-04-20 11:02 14.95092 -98.21008 36929 ft 486 kts 142°
2026-04-20 11:03 14.89833 -98.16618 36916 ft 485 kts 142°
2026-04-20 11:03 14.84612 -98.12263 36932 ft 486 kts 141°
2026-04-20 11:04 14.79353 -98.07879 36915 ft 485 kts 141°
2026-04-20 11:04 14.74108 -98.03509 36927 ft 484 kts 141°
2026-04-20 11:05 14.68862 -97.99142 36914 ft 485 kts 141°
2026-04-20 11:05 14.63601 -97.94764 36933 ft 486 kts 141°
2026-04-20 11:06 14.58330 -97.90381 36924 ft 486 kts 141°
2026-04-20 11:06 14.53063 -97.86004 36935 ft 485 kts 141°
2026-04-20 11:07 14.47803 -97.81637 36934 ft 485 kts 141°
2026-04-20 11:07 14.42575 -97.77297 36935 ft 485 kts 141°
2026-04-20 11:08 14.37311 -97.72931 36937 ft 485 kts 141°
2026-04-20 11:08 14.32046 -97.68567 36930 ft 485 kts 141°
2026-04-20 11:09 14.26788 -97.64211 36930 ft 484 kts 141°
2026-04-20 11:09 14.21540 -97.59866 36931 ft 484 kts 141°
2026-04-20 11:10 14.16282 -97.55516 36919 ft 484 kts 141°
2026-04-20 11:10 14.11038 -97.51180 36918 ft 483 kts 141°
2026-04-20 11:11 14.05793 -97.46846 36918 ft 483 kts 141°
2026-04-20 11:11 14.00587 -97.42546 36910 ft 482 kts 141°
2026-04-20 11:12 13.95351 -97.38224 36914 ft 482 kts 141°
2026-04-20 11:12 13.90125 -97.33913 36915 ft 481 kts 141°
2026-04-20 11:13 13.84901 -97.29607 36923 ft 481 kts 141°
2026-04-20 11:13 13.79678 -97.25303 36914 ft 480 kts 141°
2026-04-20 11:14 13.74462 -97.21008 36916 ft 480 kts 141°
2026-04-20 11:14 13.69257 -97.16709 36921 ft 479 kts 141°
2026-04-20 11:15 13.64102 -97.12434 36913 ft 478 kts 141°
2026-04-20 11:15 13.58913 -97.08147 36916 ft 478 kts 141°
2026-04-20 11:16 13.53726 -97.03856 36921 ft 479 kts 141°
2026-04-20 11:16 13.48527 -96.99562 36917 ft 479 kts 141°
2026-04-20 11:17 13.43330 -96.95270 36920 ft 479 kts 141°
2026-04-20 11:17 13.38141 -96.90988 36919 ft 479 kts 141°
2026-04-20 11:18 13.32945 -96.86702 36928 ft 479 kts 141°
2026-04-20 11:18 13.27751 -96.82420 36924 ft 478 kts 141°
2026-04-20 11:19 13.22598 -96.78175 36924 ft 477 kts 141°
2026-04-20 11:19 13.17419 -96.73911 36927 ft 478 kts 141°
2026-04-20 11:20 13.12227 -96.69638 36921 ft 478 kts 141°
2026-04-20 11:20 13.07028 -96.65362 36931 ft 479 kts 141°
2026-04-20 11:21 13.01830 -96.61088 36925 ft 479 kts 141°
2026-04-20 11:21 12.96633 -96.56820 36929 ft 479 kts 141°
2026-04-20 11:22 12.91419 -96.52538 36919 ft 480 kts 141°
2026-04-20 11:22 12.86205 -96.48259 36928 ft 479 kts 141°
2026-04-20 11:23 12.80998 -96.43988 36931 ft 479 kts 141°
2026-04-20 11:23 12.75790 -96.39719 36929 ft 479 kts 141°
2026-04-20 11:24 12.70609 -96.35474 36931 ft 480 kts 141°
2026-04-20 11:24 12.65386 -96.31196 36925 ft 480 kts 141°
2026-04-20 11:25 12.60158 -96.26918 36932 ft 481 kts 141°
2026-04-20 11:25 12.54932 -96.22643 36931 ft 481 kts 141°
2026-04-20 11:26 12.49703 -96.18368 36933 ft 481 kts 141°
2026-04-20 11:26 12.44489 -96.14108 36928 ft 482 kts 141°
2026-04-20 11:27 12.39250 -96.09829 36934 ft 482 kts 141°
2026-04-20 11:27 12.34004 -96.05548 36934 ft 482 kts 141°
2026-04-20 11:28 12.28754 -96.01264 36931 ft 483 kts 141°
2026-04-20 11:28 12.23503 -95.96983 36934 ft 483 kts 141°
2026-04-20 11:29 12.18249 -95.92700 36931 ft 483 kts 141°
2026-04-20 11:29 12.12997 -95.88423 36928 ft 483 kts 141°
2026-04-20 11:30 12.07742 -95.84145 36928 ft 483 kts 141°
2026-04-20 11:30 12.02488 -95.79870 36935 ft 483 kts 141°
2026-04-20 11:31 11.97231 -95.75594 36927 ft 483 kts 141°
2026-04-20 11:31 11.92003 -95.71345 36928 ft 483 kts 141°
2026-04-20 11:32 11.86743 -95.67072 36930 ft 483 kts 141°
2026-04-20 11:32 11.81480 -95.62798 36926 ft 483 kts 141°
2026-04-20 11:33 11.76217 -95.58526 36927 ft 483 kts 141°
2026-04-20 11:33 11.70956 -95.54258 36932 ft 483 kts 141°
2026-04-20 11:34 11.65688 -95.49987 36920 ft 483 kts 141°
2026-04-20 11:34 11.60425 -95.45722 36924 ft 483 kts 141°
2026-04-20 11:35 11.55155 -95.41453 36926 ft 483 kts 141°
2026-04-20 11:35 11.49923 -95.37217 36929 ft 483 kts 141°
2026-04-20 11:36 11.44654 -95.32954 36922 ft 483 kts 141°
2026-04-20 11:36 11.39384 -95.28692 36919 ft 483 kts 141°
2026-04-20 11:37 11.34111 -95.24429 36928 ft 483 kts 141°
2026-04-20 11:37 11.26201 -95.18038 36930 ft 483 kts 141°
2026-04-20 11:38 11.20930 -95.13782 36922 ft 483 kts 141°
2026-04-20 11:38 11.15687 -95.09551 36923 ft 484 kts 141°
2026-04-20 11:39 11.10416 -95.05299 36917 ft 483 kts 141°
2026-04-20 11:39 11.05135 -95.01041 36913 ft 483 kts 141°
2026-04-20 11:40 10.99862 -94.96791 36922 ft 483 kts 141°
2026-04-20 11:40 10.94586 -94.92541 36918 ft 483 kts 141°
2026-04-20 11:41 10.89347 -94.88323 36917 ft 484 kts 141°
2026-04-20 11:41 10.84064 -94.84072 36909 ft 483 kts 141°
2026-04-20 11:42 10.78786 -94.79826 36922 ft 483 kts 141°
2026-04-20 11:42 10.73517 -94.75590 36917 ft 483 kts 141°
2026-04-20 11:43 10.68239 -94.71347 36917 ft 483 kts 141°
2026-04-20 11:43 10.62964 -94.67110 36912 ft 483 kts 142°
2026-04-20 11:44 10.57704 -94.62886 36922 ft 482 kts 142°
2026-04-20 11:44 10.52440 -94.58662 36920 ft 482 kts 142°
2026-04-20 11:45 10.47176 -94.54439 36915 ft 482 kts 142°
2026-04-20 11:45 10.41949 -94.50248 36920 ft 482 kts 142°
2026-04-20 11:46 10.36684 -94.46029 36917 ft 482 kts 142°
2026-04-20 11:46 10.31412 -94.41805 36914 ft 482 kts 142°
2026-04-20 11:47 10.26143 -94.37585 36922 ft 482 kts 142°
2026-04-20 11:47 10.20873 -94.33367 36924 ft 483 kts 142°
2026-04-20 11:48 10.16487 -94.29858 36914 ft 483 kts 142°
2026-04-20 11:48 10.11215 -94.25641 36916 ft 483 kts 142°
2026-04-20 11:49 10.05944 -94.21427 36917 ft 482 kts 142°
2026-04-20 11:49 10.00664 -94.17208 36917 ft 482 kts 142°
2026-04-20 11:50 9.95387 -94.12992 36921 ft 483 kts 142°
2026-04-20 11:50 9.90141 -94.08804 36923 ft 483 kts 142°
2026-04-20 11:51 9.84858 -94.04588 36914 ft 483 kts 142°
2026-04-20 11:51 9.79574 -94.00372 36914 ft 483 kts 142°
2026-04-20 11:52 9.74281 -93.96151 36917 ft 484 kts 142°
2026-04-20 11:52 9.68982 -93.91930 36919 ft 484 kts 142°
2026-04-20 11:53 9.63680 -93.87707 36919 ft 483 kts 142°
2026-04-20 11:53 9.58429 -93.83527 36919 ft 483 kts 142°
2026-04-20 11:54 9.53150 -93.79327 36914 ft 482 kts 142°
2026-04-20 11:54 9.47859 -93.75118 36908 ft 482 kts 142°
2026-04-20 11:55 9.42573 -93.70916 36915 ft 483 kts 142°
2026-04-20 11:55 9.37284 -93.66712 36905 ft 483 kts 142°
2026-04-20 11:56 9.31989 -93.62506 36919 ft 484 kts 142°
2026-04-20 11:56 9.26726 -93.58326 36920 ft 484 kts 142°
2026-04-20 11:57 9.21430 -93.54122 36914 ft 484 kts 142°
2026-04-20 11:57 9.16125 -93.49913 36912 ft 484 kts 142°
2026-04-20 11:58 9.10816 -93.45701 36913 ft 484 kts 142°
2026-04-20 11:58 9.05508 -93.41493 36922 ft 484 kts 142°
2026-04-20 11:59 9.00202 -93.37287 36918 ft 484 kts 142°
2026-04-20 11:59 8.94929 -93.33110 36917 ft 484 kts 142°
2026-04-20 12:00 8.89632 -93.28915 36918 ft 484 kts 143°
2026-04-20 12:00 8.84322 -93.24711 36915 ft 484 kts 143°
2026-04-20 12:01 8.79012 -93.20509 36920 ft 484 kts 143°
2026-04-20 12:01 8.73704 -93.16310 36920 ft 484 kts 143°
2026-04-20 12:02 8.68390 -93.12107 36915 ft 485 kts 143°
2026-04-20 12:02 8.63075 -93.07906 36917 ft 485 kts 142°
2026-04-20 12:03 8.57790 -93.03730 36923 ft 485 kts 142°
2026-04-20 12:03 8.52472 -92.99529 36914 ft 485 kts 143°
2026-04-20 12:04 8.47145 -92.95323 36918 ft 485 kts 143°
2026-04-20 12:04 8.41830 -92.91127 36921 ft 485 kts 143°
2026-04-20 12:05 8.36515 -92.86933 36922 ft 485 kts 142°
2026-04-20 12:05 8.31194 -92.82736 36916 ft 485 kts 142°
2026-04-20 12:06 8.25862 -92.78532 36925 ft 486 kts 142°
2026-04-20 12:06 8.20533 -92.74332 36922 ft 486 kts 142°
2026-04-20 12:07 8.15206 -92.70134 36922 ft 486 kts 142°
2026-04-20 12:07 8.09900 -92.65955 36923 ft 486 kts 142°
2026-04-20 12:08 8.04560 -92.61750 36923 ft 486 kts 143°
2026-04-20 12:08 7.99216 -92.57543 36917 ft 486 kts 143°
2026-04-20 12:09 7.93908 -92.53368 36922 ft 486 kts 143°
2026-04-20 12:09 7.88565 -92.49164 36921 ft 487 kts 143°
2026-04-20 12:10 7.83219 -92.44961 36918 ft 487 kts 142°
2026-04-20 12:10 7.77866 -92.40752 36918 ft 488 kts 142°
2026-04-20 12:11 7.72513 -92.36546 36924 ft 488 kts 142°
2026-04-20 12:11 7.67153 -92.32336 36927 ft 488 kts 143°
2026-04-20 12:12 7.61823 -92.28150 36925 ft 488 kts 143°
2026-04-20 12:12 7.56456 -92.23937 36927 ft 489 kts 142°
2026-04-20 12:13 7.51092 -92.19727 36923 ft 489 kts 143°
2026-04-20 12:13 7.45720 -92.15513 36924 ft 489 kts 143°
2026-04-20 12:14 7.40338 -92.11292 36930 ft 490 kts 143°
2026-04-20 12:14 7.34958 -92.07074 36926 ft 490 kts 143°
2026-04-20 12:15 7.29581 -92.02859 36928 ft 490 kts 143°
2026-04-20 12:15 7.24229 -91.98666 36921 ft 490 kts 142°
2026-04-20 12:16 7.18834 -91.94440 36926 ft 492 kts 143°
2026-04-20 12:16 7.13431 -91.90210 36925 ft 492 kts 143°
2026-04-20 12:17 7.08023 -91.85976 36930 ft 492 kts 143°
2026-04-20 12:17 7.02612 -91.81741 36927 ft 493 kts 142°
2026-04-20 12:18 6.97200 -91.77507 36926 ft 493 kts 142°
2026-04-20 12:18 6.91803 -91.73286 36931 ft 494 kts 142°
2026-04-20 12:19 6.86372 -91.69039 36927 ft 493 kts 143°
2026-04-20 12:19 6.80959 -91.64809 36923 ft 493 kts 142°
2026-04-20 12:20 6.75535 -91.60570 36928 ft 493 kts 143°
2026-04-20 12:20 6.70110 -91.56333 36926 ft 494 kts 142°
2026-04-20 12:21 6.64670 -91.52084 36927 ft 495 kts 142°
2026-04-20 12:21 6.59228 -91.47836 36929 ft 494 kts 142°
2026-04-20 12:22 6.53803 -91.43602 36928 ft 493 kts 142°
2026-04-20 12:22 6.48412 -91.39395 36928 ft 493 kts 142°
2026-04-20 12:23 6.42984 -91.35161 36922 ft 494 kts 142°
2026-04-20 12:23 6.37538 -91.30914 36924 ft 495 kts 142°
2026-04-20 12:24 6.32090 -91.26666 36934 ft 497 kts 142°
2026-04-20 12:24 6.26637 -91.22416 36934 ft 495 kts 142°
2026-04-20 12:25 6.21199 -91.18179 36932 ft 493 kts 142°
2026-04-20 12:25 6.15772 -91.13952 36923 ft 493 kts 142°
2026-04-20 12:26 6.10351 -91.09729 36930 ft 494 kts 142°
2026-04-20 12:26 6.04908 -91.05492 36928 ft 494 kts 142°
2026-04-20 12:27 5.99462 -91.01252 36933 ft 495 kts 143°
2026-04-20 12:27 5.94007 -90.97008 36933 ft 496 kts 143°
2026-04-20 12:28 5.88568 -90.92776 36938 ft 497 kts 143°
2026-04-20 12:28 5.83112 -90.88532 36937 ft 495 kts 142°
2026-04-20 12:29 5.77662 -90.84294 36933 ft 493 kts 143°
2026-04-20 12:29 5.72230 -90.80072 36936 ft 494 kts 142°
2026-04-20 12:30 5.66814 -90.75862 36939 ft 495 kts 143°
2026-04-20 12:30 5.61364 -90.71628 36931 ft 496 kts 142°
2026-04-20 12:31 5.55890 -90.67375 36942 ft 496 kts 143°
2026-04-20 12:31 5.50430 -90.63135 36941 ft 496 kts 143°
2026-04-20 12:32 5.44968 -90.58887 36937 ft 496 kts 142°
2026-04-20 12:32 5.39528 -90.54661 36940 ft 497 kts 142°
2026-04-20 12:33 5.34057 -90.50410 36941 ft 497 kts 142°
2026-04-20 12:33 5.28584 -90.46159 36942 ft 497 kts 142°
2026-04-20 12:34 5.23120 -90.41916 36939 ft 496 kts 142°
2026-04-20 12:34 5.17661 -90.37677 36937 ft 496 kts 142°
2026-04-20 12:35 5.12206 -90.33444 36937 ft 496 kts 142°
2026-04-20 12:35 5.06741 -90.29203 36941 ft 497 kts 142°
2026-04-20 12:36 5.02191 -90.25672 36939 ft 499 kts 142°
2026-04-20 12:36 4.96708 -90.21419 36931 ft 498 kts 142°
2026-04-20 12:37 4.91231 -90.17172 36940 ft 498 kts 142°
2026-04-20 12:37 4.85747 -90.12920 36942 ft 498 kts 142°
2026-04-20 12:38 4.80253 -90.08661 36938 ft 499 kts 142°
2026-04-20 12:38 4.74749 -90.04395 36939 ft 499 kts 142°
2026-04-20 12:39 4.66538 -89.98033 36943 ft 498 kts 142°
2026-04-20 12:40 4.61061 -89.93790 36945 ft 497 kts 142°
2026-04-20 12:40 4.55580 -89.89544 36937 ft 498 kts 142°
2026-04-20 12:41 4.50085 -89.85290 36930 ft 499 kts 142°
2026-04-20 12:41 4.44587 -89.81033 36939 ft 500 kts 142°
2026-04-20 12:42 4.39113 -89.76796 36943 ft 500 kts 142°
2026-04-20 12:42 4.33601 -89.72530 36942 ft 499 kts 142°
2026-04-20 12:43 4.28107 -89.68280 36938 ft 498 kts 142°
2026-04-20 12:43 4.22624 -89.64037 36942 ft 499 kts 142°
2026-04-20 12:44 4.17123 -89.59783 36943 ft 499 kts 142°
2026-04-20 12:44 4.11634 -89.55538 36933 ft 499 kts 142°
2026-04-20 12:45 4.06169 -89.51313 36934 ft 499 kts 142°
2026-04-20 12:45 4.00659 -89.47053 36942 ft 500 kts 142°
2026-04-20 12:46 3.95147 -89.42793 36940 ft 500 kts 142°
2026-04-20 12:46 3.89638 -89.38536 36936 ft 500 kts 142°
2026-04-20 12:47 3.84134 -89.34284 36928 ft 499 kts 142°
2026-04-20 12:47 3.78644 -89.30042 36941 ft 499 kts 142°
2026-04-20 12:48 3.73141 -89.25791 36945 ft 500 kts 142°
2026-04-20 12:48 3.67638 -89.21542 36938 ft 499 kts 142°
2026-04-20 12:49 3.62130 -89.17289 36939 ft 499 kts 142°
2026-04-20 12:49 3.56624 -89.13038 36943 ft 500 kts 142°
2026-04-20 12:50 3.51145 -89.08809 36944 ft 500 kts 142°
2026-04-20 12:50 3.45652 -89.04570 36934 ft 499 kts 142°
2026-04-20 12:51 3.40158 -89.00330 36942 ft 497 kts 142°
2026-04-20 12:51 3.34678 -88.96102 36932 ft 498 kts 142°
2026-04-20 12:52 3.29178 -88.91859 36939 ft 498 kts 142°
2026-04-20 12:52 3.23695 -88.87630 36931 ft 498 kts 142°
2026-04-20 12:53 3.18213 -88.83402 36935 ft 497 kts 142°
2026-04-20 12:53 3.12737 -88.79179 36928 ft 496 kts 142°
2026-04-20 12:54 3.07259 -88.74956 36932 ft 497 kts 142°
2026-04-20 12:54 3.01786 -88.70737 36935 ft 497 kts 142°
2026-04-20 12:55 2.96351 -88.66547 36937 ft 496 kts 142°
2026-04-20 12:55 2.90886 -88.62335 36934 ft 496 kts 142°
2026-04-20 12:56 2.85415 -88.58119 36926 ft 496 kts 142°
2026-04-20 12:56 2.79945 -88.53905 36934 ft 497 kts 142°
2026-04-20 12:57 2.74464 -88.49681 36937 ft 497 kts 142°
2026-04-20 12:57 2.68987 -88.45463 36934 ft 496 kts 142°
2026-04-20 12:58 2.63515 -88.41248 36932 ft 495 kts 142°
2026-04-20 12:58 2.58062 -88.37048 36940 ft 495 kts 141°
2026-04-20 12:59 2.52637 -88.32871 36936 ft 495 kts 141°
2026-04-20 12:59 2.47182 -88.28670 36937 ft 495 kts 141°
2026-04-20 13:00 2.41722 -88.24467 36941 ft 495 kts 141°
2026-04-20 13:00 2.36256 -88.20258 36927 ft 495 kts 141°
2026-04-20 13:01 2.30802 -88.16061 36940 ft 495 kts 141°
2026-04-20 13:01 2.25377 -88.11886 36947 ft 495 kts 141°
2026-04-20 13:02 2.19912 -88.07680 36946 ft 494 kts 141°
2026-04-20 13:02 2.14463 -88.03486 36943 ft 493 kts 141°
2026-04-20 13:03 2.09022 -87.99300 36945 ft 493 kts 141°
2026-04-20 13:03 2.03577 -87.95110 36947 ft 494 kts 141°
2026-04-20 13:04 1.98128 -87.90918 36946 ft 494 kts 141°
2026-04-20 13:04 1.92691 -87.86736 36941 ft 492 kts 141°
2026-04-20 13:05 1.87292 -87.82583 36941 ft 493 kts 141°
2026-04-20 13:05 1.81857 -87.78403 36945 ft 492 kts 141°
2026-04-20 13:06 1.76429 -87.74228 36942 ft 492 kts 141°
2026-04-20 13:06 1.71006 -87.70059 36947 ft 492 kts 141°
2026-04-20 13:07 1.65584 -87.65888 36946 ft 491 kts 141°
2026-04-20 13:07 1.60168 -87.61725 36946 ft 491 kts 141°
2026-04-20 13:08 1.54750 -87.57559 36946 ft 491 kts 141°
2026-04-20 13:08 1.49339 -87.53400 36943 ft 491 kts 141°
2026-04-20 13:09 1.43960 -87.49264 36941 ft 491 kts 141°
2026-04-20 13:09 1.38545 -87.45098 36943 ft 491 kts 141°
2026-04-20 13:10 1.33139 -87.40931 36947 ft 491 kts 141°
2026-04-20 13:10 1.27725 -87.36763 36943 ft 491 kts 141°
2026-04-20 13:11 1.22315 -87.32596 36948 ft 491 kts 141°
2026-04-20 13:11 1.16903 -87.28428 36948 ft 490 kts 141°
2026-04-20 13:12 1.11500 -87.24267 36949 ft 490 kts 141°
2026-04-20 13:12 1.06130 -87.20132 36952 ft 490 kts 141°
2026-04-20 13:13 1.00732 -87.15975 36951 ft 490 kts 141°
2026-04-20 13:13 0.95331 -87.11816 36955 ft 489 kts 141°
2026-04-20 13:14 0.89938 -87.07664 36955 ft 489 kts 141°
2026-04-20 13:14 0.84552 -87.03517 36951 ft 488 kts 141°
2026-04-20 13:15 0.79168 -86.99372 36950 ft 489 kts 141°
2026-04-20 13:15 0.73784 -86.95227 36944 ft 489 kts 141°
2026-04-20 13:16 0.68389 -86.91073 36946 ft 489 kts 141°
2026-04-20 13:16 0.63034 -86.86951 36953 ft 489 kts 141°
2026-04-20 13:17 0.57646 -86.82803 36954 ft 489 kts 141°
2026-04-20 13:17 0.52261 -86.78658 36947 ft 488 kts 141°
2026-04-20 13:18 0.46885 -86.74519 36945 ft 488 kts 141°
2026-04-20 13:18 0.41496 -86.70372 36954 ft 488 kts 141°
2026-04-20 13:19 0.36116 -86.66230 36951 ft 488 kts 141°
2026-04-20 13:19 0.30743 -86.62095 36952 ft 487 kts 141°
2026-04-20 13:20 0.25397 -86.57979 36947 ft 488 kts 141°
2026-04-20 13:20 0.20007 -86.53831 36946 ft 489 kts 141°
2026-04-20 13:21 0.14607 -86.49674 36946 ft 489 kts 141°
2026-04-20 13:21 0.09213 -86.45522 36948 ft 489 kts 141°
2026-04-20 13:22 0.03831 -86.41380 36949 ft 488 kts 141°
2026-04-20 13:22 -0.01548 -86.37239 36953 ft 487 kts 141°
2026-04-20 13:23 -0.06015 -86.33802 36944 ft 488 kts 141°
2026-04-20 13:23 -0.11413 -86.29646 36949 ft 489 kts 141°
2026-04-20 13:24 -0.16775 -86.25519 36954 ft 490 kts 141°
2026-04-20 13:24 -0.22173 -86.21364 36950 ft 489 kts 141°
2026-04-20 13:25 -0.27572 -86.17208 36955 ft 489 kts 141°
2026-04-20 13:25 -0.32975 -86.13050 36952 ft 490 kts 141°
2026-04-20 13:26 -0.38381 -86.08890 36954 ft 490 kts 141°
2026-04-20 13:26 -0.43776 -86.04737 36953 ft 489 kts 141°
2026-04-20 13:27 -0.49166 -86.00588 36949 ft 488 kts 141°
2026-04-20 13:27 -0.54540 -85.96452 36952 ft 488 kts 141°
2026-04-20 13:28 -0.59878 -85.92343 36950 ft 487 kts 141°
2026-04-20 13:28 -0.65254 -85.88206 36946 ft 487 kts 141°
2026-04-20 13:29 -0.70630 -85.84067 36945 ft 489 kts 141°
2026-04-20 13:29 -0.76036 -85.79906 36956 ft 490 kts 142°
2026-04-20 13:30 -0.81434 -85.75751 36954 ft 489 kts 142°
2026-04-20 13:30 -0.86830 -85.71597 36953 ft 489 kts 142°
2026-04-20 13:31 -0.92193 -85.67468 36954 ft 490 kts 142°
2026-04-20 13:31 -0.97592 -85.63311 36954 ft 490 kts 141°
2026-04-20 13:32 -1.03005 -85.59144 36953 ft 490 kts 141°
2026-04-20 13:32 -1.08413 -85.54979 36957 ft 491 kts 141°
2026-04-20 13:33 -1.13819 -85.50816 36957 ft 491 kts 141°
2026-04-20 13:33 -1.19229 -85.46649 36954 ft 491 kts 141°
2026-04-20 13:34 -1.24644 -85.42479 36954 ft 491 kts 141°
2026-04-20 13:34 -1.30068 -85.38303 36957 ft 491 kts 141°
2026-04-20 13:35 -1.35453 -85.34156 36956 ft 491 kts 141°
2026-04-20 13:35 -1.40861 -85.29990 36964 ft 491 kts 141°
2026-04-20 13:36 -1.46274 -85.25822 36955 ft 491 kts 141°
2026-04-20 13:36 -1.51688 -85.21651 36960 ft 491 kts 141°
2026-04-20 13:37 -1.57100 -85.17483 36961 ft 491 kts 141°
2026-04-20 13:37 -1.62513 -85.13313 36959 ft 491 kts 141°
2026-04-20 13:38 -1.67932 -85.09150 36958 ft 491 kts 141°
2026-04-20 13:38 -1.73341 -85.04990 36956 ft 491 kts 141°
2026-04-20 13:39 -1.78757 -85.00827 36962 ft 491 kts 141°
2026-04-20 13:39 -1.84147 -84.96683 36958 ft 491 kts 141°
2026-04-20 13:40 -1.89575 -84.92508 36959 ft 492 kts 141°
2026-04-20 13:40 -1.95007 -84.88331 36967 ft 491 kts 141°
2026-04-20 13:41 -2.00425 -84.84164 36966 ft 491 kts 141°
2026-04-20 13:41 -2.05841 -84.79999 36959 ft 491 kts 141°
2026-04-20 13:42 -2.11233 -84.75851 36961 ft 492 kts 141°
2026-04-20 13:42 -2.19366 -84.69594 36967 ft 492 kts 141°
2026-04-20 13:43 -2.24791 -84.65420 36966 ft 492 kts 141°
2026-04-20 13:43 -2.30228 -84.61236 36965 ft 493 kts 141°
2026-04-20 13:44 -2.35665 -84.57052 36966 ft 492 kts 141°
2026-04-20 13:44 -2.41098 -84.52872 36962 ft 492 kts 141°
2026-04-20 13:45 -2.46495 -84.48717 36967 ft 493 kts 141°
2026-04-20 13:45 -2.51934 -84.44530 36966 ft 493 kts 141°
2026-04-20 13:46 -2.57372 -84.40344 36967 ft 493 kts 141°
2026-04-20 13:46 -2.62810 -84.36156 36968 ft 493 kts 141°
2026-04-20 13:47 -2.68247 -84.31971 36971 ft 492 kts 141°
2026-04-20 13:47 -2.73673 -84.27791 36969 ft 493 kts 141°
2026-04-20 13:48 -2.79073 -84.23632 36969 ft 492 kts 141°
2026-04-20 13:48 -2.84495 -84.19456 36971 ft 492 kts 141°
2026-04-20 13:49 -2.89927 -84.15271 36972 ft 493 kts 141°
2026-04-20 13:49 -2.95363 -84.11082 36984 ft 493 kts 141°
2026-04-20 13:50 -3.00802 -84.06890 36983 ft 493 kts 141°
2026-04-20 13:50 -3.06230 -84.02707 36978 ft 493 kts 141°
2026-04-20 13:51 -3.11663 -83.98520 36976 ft 493 kts 141°
2026-04-20 13:51 -3.17106 -83.94324 36981 ft 494 kts 141°
2026-04-20 13:52 -3.22556 -83.90122 36983 ft 494 kts 141°
2026-04-20 13:52 -3.27965 -83.85950 36983 ft 495 kts 141°
2026-04-20 13:53 -3.33426 -83.81739 36983 ft 495 kts 141°
2026-04-20 13:53 -3.38886 -83.77528 36985 ft 495 kts 141°
2026-04-20 13:54 -3.44294 -83.73263 36987 ft 495 kts 140°
2026-04-20 13:54 -3.49649 -83.68938 36986 ft 495 kts 141°
2026-04-20 13:55 -3.55043 -83.64656 36987 ft 495 kts 140°
2026-04-20 13:55 -3.60381 -83.60369 36986 ft 495 kts 140°
2026-04-20 13:56 -3.65767 -83.56074 36985 ft 495 kts 140°
2026-04-20 13:56 -3.71144 -83.51766 36985 ft 495 kts 140°
2026-04-20 13:57 -3.76528 -83.47464 36988 ft 495 kts 140°
2026-04-20 13:57 -3.81914 -83.43151 36988 ft 495 kts 140°
2026-04-20 13:58 -3.87302 -83.38842 36987 ft 495 kts 140°
2026-04-20 13:58 -3.92654 -83.34558 36987 ft 496 kts 140°
2026-04-20 13:59 -3.98045 -83.30243 36988 ft 496 kts 140°
2026-04-20 13:59 -4.03427 -83.25934 36988 ft 496 kts 140°
2026-04-20 14:00 -4.08817 -83.21618 36987 ft 495 kts 140°
2026-04-20 14:00 -4.14204 -83.17304 36987 ft 495 kts 140°
2026-04-20 14:01 -4.19596 -83.12984 36991 ft 496 kts 140°
2026-04-20 14:01 -4.24974 -83.08676 36990 ft 495 kts 140°
2026-04-20 14:02 -4.30362 -83.04358 36989 ft 495 kts 140°
2026-04-20 14:02 -4.35745 -83.00045 36987 ft 495 kts 140°
2026-04-20 14:03 -4.41101 -82.95750 36989 ft 495 kts 140°
2026-04-20 14:03 -4.46484 -82.91434 36990 ft 495 kts 140°
2026-04-20 14:04 -4.51864 -82.87121 36990 ft 495 kts 140°
2026-04-20 14:04 -4.57253 -82.82798 36993 ft 496 kts 140°
2026-04-20 14:05 -4.62634 -82.78481 36995 ft 495 kts 140°
2026-04-20 14:05 -4.68020 -82.74160 36998 ft 495 kts 140°
2026-04-20 14:06 -4.73370 -82.69866 36997 ft 495 kts 140°
2026-04-20 14:06 -4.78750 -82.65547 36996 ft 495 kts 140°
2026-04-20 14:07 -4.84136 -82.61223 36998 ft 495 kts 140°
2026-04-20 14:07 -4.89509 -82.56908 37004 ft 495 kts 140°
2026-04-20 14:08 -4.94892 -82.52584 37003 ft 495 kts 140°
2026-04-20 14:08 -5.00266 -82.48266 37003 ft 495 kts 140°
2026-04-20 14:09 -5.05606 -82.43975 37000 ft 495 kts 140°
2026-04-20 14:09 -5.10971 -82.39663 37001 ft 494 kts 140°
2026-04-20 14:10 -5.16338 -82.35348 36999 ft 494 kts 140°
2026-04-20 14:10 -5.20809 -82.31753 37000 ft 494 kts 140°
2026-04-20 14:11 -5.26177 -82.27436 37002 ft 495 kts 140°
2026-04-20 14:11 -5.31548 -82.23115 37002 ft 495 kts 140°
2026-04-20 14:12 -5.36916 -82.18796 37003 ft 495 kts 140°
2026-04-20 14:12 -5.42285 -82.14475 37002 ft 495 kts 140°
2026-04-20 14:13 -5.47659 -82.10149 37003 ft 494 kts 140°
2026-04-20 14:13 -5.52992 -82.05854 36999 ft 494 kts 140°
2026-04-20 14:14 -5.58354 -82.01536 37001 ft 494 kts 140°
2026-04-20 14:14 -5.63717 -81.97216 37003 ft 494 kts 140°
2026-04-20 14:15 -5.69078 -81.92896 37001 ft 494 kts 140°
2026-04-20 14:15 -5.74446 -81.88570 37003 ft 494 kts 140°
2026-04-20 14:16 -5.79816 -81.84273 36998 ft 494 kts 140°
2026-04-20 14:16 -5.85201 -81.79961 36999 ft 494 kts 140°
2026-04-20 14:17 -5.90571 -81.75656 36995 ft 494 kts 140°
2026-04-20 14:17 -5.95948 -81.71350 36997 ft 494 kts 140°
2026-04-20 14:18 -6.01316 -81.67045 37001 ft 494 kts 140°
2026-04-20 14:18 -6.06656 -81.62764 36999 ft 494 kts 140°
2026-04-20 14:19 -6.12035 -81.58450 37000 ft 494 kts 140°
2026-04-20 14:19 -6.17410 -81.54139 37000 ft 494 kts 140°
2026-04-20 14:20 -6.22783 -81.49828 36999 ft 495 kts 140°
2026-04-20 14:20 -6.28181 -81.45496 37001 ft 495 kts 140°
2026-04-20 14:21 -6.33562 -81.41175 37002 ft 495 kts 140°
2026-04-20 14:21 -6.38937 -81.36859 37001 ft 494 kts 140°
2026-04-20 14:22 -6.44311 -81.32542 37002 ft 495 kts 140°
2026-04-20 14:22 -6.49692 -81.28218 37005 ft 495 kts 140°
2026-04-20 14:23 -6.55070 -81.23896 37003 ft 495 kts 140°
2026-04-20 14:23 -6.60450 -81.19571 37006 ft 495 kts 140°
2026-04-20 14:24 -6.65837 -81.15238 37008 ft 495 kts 140°
2026-04-20 14:24 -6.71224 -81.10906 37005 ft 496 kts 140°
2026-04-20 14:25 -6.76614 -81.06568 37006 ft 496 kts 140°
2026-04-20 14:25 -6.82000 -81.02233 37009 ft 496 kts 140°
2026-04-20 14:26 -6.87352 -80.97925 37004 ft 495 kts 140°
2026-04-20 14:26 -6.92727 -80.93595 37003 ft 495 kts 140°
2026-04-20 14:27 -6.98103 -80.89265 37006 ft 496 kts 140°
2026-04-20 14:27 -7.03497 -80.84918 37012 ft 497 kts 140°
2026-04-20 14:28 -7.08899 -80.80563 37009 ft 497 kts 140°
2026-04-20 14:28 -7.14297 -80.76211 37010 ft 496 kts 140°
2026-04-20 14:29 -7.19682 -80.71867 37012 ft 496 kts 140°
2026-04-20 14:29 -7.25035 -80.67548 37012 ft 496 kts 140°
2026-04-20 14:30 -7.30415 -80.63206 37011 ft 495 kts 140°
2026-04-20 14:30 -7.35799 -80.58859 37010 ft 496 kts 140°
2026-04-20 14:31 -7.41190 -80.54505 37012 ft 497 kts 140°
2026-04-20 14:31 -7.46586 -80.50146 37009 ft 497 kts 140°
2026-04-20 14:32 -7.51981 -80.45786 37014 ft 497 kts 140°
2026-04-20 14:32 -7.57385 -80.41417 37012 ft 497 kts 140°
2026-04-20 14:33 -7.62747 -80.37081 37010 ft 497 kts 140°
2026-04-20 14:33 -7.68144 -80.32715 37013 ft 497 kts 140°
2026-04-20 14:34 -7.73532 -80.28355 37012 ft 497 kts 140°
2026-04-20 14:34 -7.78923 -80.23992 37012 ft 497 kts 140°
2026-04-20 14:35 -7.84320 -80.19621 37015 ft 497 kts 140°
2026-04-20 14:35 -7.89673 -80.15285 37011 ft 497 kts 140°
2026-04-20 14:36 -7.95064 -80.10917 37011 ft 497 kts 140°
2026-04-20 14:36 -8.00443 -80.06557 37010 ft 496 kts 140°
2026-04-20 14:37 -8.05825 -80.02192 37011 ft 496 kts 140°
2026-04-20 14:37 -8.11203 -79.97830 37010 ft 496 kts 140°
2026-04-20 14:38 -8.16579 -79.93467 37011 ft 496 kts 140°
2026-04-20 14:38 -8.21963 -79.89097 37008 ft 496 kts 140°
2026-04-20 14:39 -8.27345 -79.84727 37011 ft 496 kts 140°
2026-04-20 14:39 -8.32733 -79.80349 37007 ft 497 kts 140°
2026-04-20 14:40 -8.38086 -79.76000 37007 ft 497 kts 140°
2026-04-20 14:40 -8.43472 -79.71622 37006 ft 497 kts 140°
2026-04-20 14:41 -8.48848 -79.67241 37009 ft 496 kts 140°
2026-04-20 14:41 -8.54227 -79.62846 37007 ft 496 kts 140°
2026-04-20 14:42 -8.59599 -79.58464 37006 ft 496 kts 140°
2026-04-20 14:42 -8.64971 -79.54074 37006 ft 496 kts 140°
2026-04-20 14:43 -8.70316 -79.49708 37012 ft 497 kts 140°
2026-04-20 14:43 -8.75693 -79.45312 37010 ft 497 kts 140°
2026-04-20 14:44 -8.81075 -79.40912 37014 ft 497 kts 140°
2026-04-20 14:44 -8.86444 -79.36520 37015 ft 496 kts 140°
2026-04-20 14:45 -8.91814 -79.32126 37018 ft 496 kts 140°
2026-04-20 14:45 -8.97185 -79.27728 37022 ft 497 kts 140°
2026-04-20 14:46 -9.02557 -79.23329 37022 ft 497 kts 140°
2026-04-20 14:46 -9.07930 -79.18927 37020 ft 496 kts 139°
2026-04-20 14:47 -9.13292 -79.14531 37026 ft 496 kts 139°
2026-04-20 14:48 -9.21344 -79.07929 37023 ft 496 kts 139°
2026-04-20 14:48 -9.26714 -79.03522 37021 ft 496 kts 139°
2026-04-20 14:49 -9.32045 -78.99147 37019 ft 496 kts 139°
2026-04-20 14:49 -9.37409 -78.94743 37011 ft 496 kts 139°
2026-04-20 14:50 -9.42754 -78.90352 37007 ft 494 kts 139°
2026-04-20 14:50 -9.48099 -78.85960 37009 ft 495 kts 139°
2026-04-20 14:51 -9.53448 -78.81562 37008 ft 496 kts 139°
2026-04-20 14:51 -9.58812 -78.77151 37013 ft 497 kts 139°
2026-04-20 14:52 -9.64173 -78.72740 37024 ft 496 kts 139°
2026-04-20 14:52 -9.69510 -78.68305 37040 ft 494 kts 134°
2026-04-20 14:53 -9.73827 -78.62983 37060 ft 493 kts 125°
2026-04-20 14:53 -9.77942 -78.57414 37080 ft 493 kts 125°
2026-04-20 14:54 -9.82078 -78.51858 37078 ft 493 kts 125°
2026-04-20 14:54 -9.86201 -78.46295 37086 ft 493 kts 125°
2026-04-20 14:55 -9.90331 -78.40729 37089 ft 493 kts 125°
2026-04-20 14:55 -9.94442 -78.35181 37091 ft 492 kts 125°
2026-04-20 14:56 -9.97869 -78.30560 37099 ft 493 kts 125°
2026-04-20 14:56 -10.02669 -78.24074 37099 ft 494 kts 125°
2026-04-20 14:56 -10.04717 -78.21309 36459 ft 492 kts 125°
2026-04-20 14:57 -10.06785 -78.18515 35693 ft 494 kts 126°
2026-04-20 14:57 -10.08179 -78.16630 35211 ft 494 kts 126°
2026-04-20 14:57 -10.10241 -78.13844 34544 ft 493 kts 126°
2026-04-20 14:57 -10.12273 -78.11097 33841 ft 493 kts 126°
2026-04-20 14:58 -10.14328 -78.08318 33178 ft 491 kts 126°
2026-04-20 14:58 -10.16374 -78.05550 32514 ft 488 kts 126°
2026-04-20 14:58 -10.18467 -78.02872 32042 ft 482 kts 134°
2026-04-20 14:58 -10.20994 -78.00666 31468 ft 478 kts 146°
2026-04-20 14:59 -10.23864 -77.99018 30979 ft 471 kts 154°
2026-04-20 14:59 -10.26813 -77.97577 30443 ft 467 kts 154°
2026-04-20 14:59 -10.29731 -77.96158 29901 ft 462 kts 154°
2026-04-20 14:59 -10.32616 -77.94753 29393 ft 456 kts 154°
2026-04-20 15:00 -10.35456 -77.93363 28912 ft 449 kts 154°
2026-04-20 15:00 -10.38256 -77.91993 28410 ft 444 kts 154°
2026-04-20 15:00 -10.41019 -77.90645 27952 ft 438 kts 154°
2026-04-20 15:00 -10.43764 -77.89305 27489 ft 434 kts 154°
2026-04-20 15:01 -10.46469 -77.87982 27014 ft 430 kts 154°
2026-04-20 15:01 -10.49129 -77.86681 26567 ft 428 kts 154°
2026-04-20 15:01 -10.51810 -77.85370 26107 ft 427 kts 154°
2026-04-20 15:01 -10.54482 -77.84065 25650 ft 425 kts 154°
2026-04-20 15:02 -10.57138 -77.82763 25194 ft 423 kts 154°
2026-04-20 15:02 -10.59789 -77.81467 24737 ft 422 kts 154°
2026-04-20 15:02 -10.62428 -77.80177 24283 ft 420 kts 154°
2026-04-20 15:02 -10.65057 -77.78890 23832 ft 418 kts 154°
2026-04-20 15:03 -10.67666 -77.77612 23346 ft 415 kts 154°
2026-04-20 15:03 -10.70257 -77.76344 22894 ft 411 kts 154°
2026-04-20 15:03 -10.72828 -77.75085 22446 ft 408 kts 154°
2026-04-20 15:03 -10.75374 -77.73838 22005 ft 406 kts 154°
2026-04-20 15:04 -10.77914 -77.72593 21577 ft 404 kts 154°
2026-04-20 15:04 -10.80443 -77.71354 21149 ft 402 kts 154°
2026-04-20 15:04 -10.82963 -77.70119 20710 ft 400 kts 154°
2026-04-20 15:04 -10.85468 -77.68891 20283 ft 399 kts 154°
2026-04-20 15:05 -10.87962 -77.67669 19853 ft 396 kts 154°
2026-04-20 15:05 -10.90436 -77.66456 19435 ft 394 kts 153°
2026-04-20 15:05 -10.92877 -77.65259 19012 ft 393 kts 153°
2026-04-20 15:05 -10.95335 -77.64053 18589 ft 391 kts 153°
2026-04-20 15:06 -10.97778 -77.62854 18147 ft 389 kts 153°
2026-04-20 15:06 -11.00203 -77.61664 17716 ft 385 kts 153°
2026-04-20 15:06 -11.02604 -77.60485 17296 ft 382 kts 153°
2026-04-20 15:06 -11.04989 -77.59315 16904 ft 379 kts 154°
2026-04-20 15:07 -11.07357 -77.58152 16499 ft 376 kts 154°
2026-04-20 15:07 -11.09706 -77.56999 16089 ft 374 kts 154°
2026-04-20 15:07 -11.12039 -77.55853 15695 ft 371 kts 154°
2026-04-20 15:07 -11.14363 -77.54711 15294 ft 369 kts 154°
2026-04-20 15:08 -11.16665 -77.53580 14899 ft 363 kts 154°
2026-04-20 15:08 -11.18918 -77.52473 14511 ft 356 kts 154°
2026-04-20 15:08 -11.21126 -77.51388 14124 ft 349 kts 154°
2026-04-20 15:08 -11.23288 -77.50324 13743 ft 342 kts 154°
2026-04-20 15:09 -11.25413 -77.49281 13348 ft 335 kts 155°
2026-04-20 15:09 -11.27502 -77.48298 12992 ft 327 kts 156°
2026-04-20 15:09 -11.29527 -77.47365 12648 ft 320 kts 155°
2026-04-20 15:09 -11.31530 -77.46426 12307 ft 314 kts 155°
2026-04-20 15:10 -11.33519 -77.45482 11969 ft 310 kts 155°
2026-04-20 15:10 -11.35464 -77.44565 11644 ft 306 kts 155°
2026-04-20 15:10 -11.37372 -77.43668 11308 ft 304 kts 155°
2026-04-20 15:10 -11.39286 -77.42767 10999 ft 302 kts 155°
2026-04-20 15:11 -11.41187 -77.41871 10675 ft 299 kts 155°
2026-04-20 15:11 -11.43068 -77.40985 10359 ft 296 kts 155°
2026-04-20 15:11 -11.44918 -77.40113 10042 ft 289 kts 155°
2026-04-20 15:11 -11.46725 -77.39261 9719 ft 283 kts 155°
2026-04-20 15:12 -11.48502 -77.38423 9403 ft 279 kts 155°
2026-04-20 15:12 -11.50265 -77.37592 9105 ft 279 kts 155°
2026-04-20 15:12 -11.52024 -77.36763 8799 ft 278 kts 155°
2026-04-20 15:12 -11.53775 -77.35937 8508 ft 277 kts 155°
2026-04-20 15:13 -11.55518 -77.35115 8214 ft 275 kts 155°
2026-04-20 15:13 -11.57254 -77.34297 7907 ft 275 kts 155°
2026-04-20 15:13 -11.58985 -77.33480 7618 ft 274 kts 155°
2026-04-20 15:13 -11.60705 -77.32668 7328 ft 269 kts 155°
2026-04-20 15:14 -11.62382 -77.31876 7035 ft 263 kts 155°
2026-04-20 15:14 -11.64032 -77.31098 6747 ft 260 kts 155°
2026-04-20 15:14 -11.65671 -77.30324 6475 ft 258 kts 155°
2026-04-20 15:14 -11.67274 -77.29567 6187 ft 257 kts 155°
2026-04-20 15:15 -11.68894 -77.28803 5900 ft 256 kts 155°
2026-04-20 15:15 -11.70287 -77.28145 5675 ft 255 kts 155°
2026-04-20 15:15 -11.71884 -77.27391 5398 ft 250 kts 155°
2026-04-20 15:15 -11.73427 -77.26662 5119 ft 236 kts 155°
2026-04-20 15:16 -11.74893 -77.26030 4856 ft 224 kts 160°
2026-04-20 15:16 -11.76317 -77.25418 4652 ft 222 kts 154°
2026-04-20 15:16 -11.77678 -77.24749 4456 ft 211 kts 154°
2026-04-20 15:16 -11.78977 -77.24106 4214 ft 203 kts 154°
2026-04-20 15:17 -11.80222 -77.23489 3990 ft 196 kts 154°
2026-04-20 15:17 -11.81435 -77.22889 3757 ft 190 kts 154°
2026-04-20 15:17 -11.82595 -77.22314 3498 ft 181 kts 154°
2026-04-20 15:17 -11.83734 -77.21749 3273 ft 181 kts 154°
2026-04-20 15:18 -11.84844 -77.21201 3023 ft 179 kts 154°
2026-04-20 15:18 -11.85956 -77.20654 2780 ft 176 kts 154°
2026-04-20 15:18 -11.87049 -77.20112 2549 ft 174 kts 154°
2026-04-20 15:18 -11.88134 -77.19574 2316 ft 173 kts 155°
2026-04-20 15:19 -11.89202 -77.19053 2072 ft 167 kts 155°
2026-04-20 15:19 -11.90248 -77.18531 1839 ft 169 kts 155°
2026-04-20 15:19 -11.91299 -77.18010 1659 ft 164 kts 155°
2026-04-20 15:19 -11.92281 -77.17522 1442 ft 153 kts 155°
2026-04-20 15:20 -11.93230 -77.17057 1268 ft 149 kts 155°
2026-04-20 15:20 -11.94163 -77.16594 1078 ft 148 kts 155°
2026-04-20 15:20 -11.95086 -77.16135 865 ft 146 kts 154°
2026-04-20 15:20 -11.96007 -77.15677 699 ft 148 kts 155°
2026-04-20 15:21 -11.96918 -77.15220 591 ft 143 kts 156°
2026-04-20 15:21 -11.97805 -77.14771 468 ft 140 kts 159°
2026-04-20 15:21 -11.98682 -77.14349 379 ft 139 kts 159°
2026-04-20 15:21 -11.99536 -77.13925 299 ft 139 kts 158°
2026-04-20 15:22 -12.00420 -77.13498 173 ft 142 kts 158°
2026-04-20 15:22 -12.01302 -77.13065 58 ft 136 kts 156°
2026-04-20 15:22 -12.02035 -77.12704 48 ft 86 kts 150°
2026-04-20 15:22 -12.02355 -77.12543 51 ft 24 kts 154°
2026-04-20 15:23 -12.02501 -77.12471 50 ft 22 kts 154°
2026-04-20 15:23 -12.02624 -77.12399 50 ft 19 kts 143°
2026-04-20 15:23 -12.02717 -77.12309 55 ft 17 kts 130°
2026-04-20 15:23 -12.02766 -77.12222 64 ft 10 kts 91°
2026-04-20 15:24 -12.02748 -77.12198 58 ft 3 kts 26°
2026-04-20 15:24 -12.02709 -77.12198 67 ft 9 kts 348°
2026-04-20 15:24 -12.02627 -77.12234 59 ft 16 kts 334°
2026-04-20 15:24 -12.02513 -77.12290 60 ft 19 kts 334°
2026-04-20 15:25 -12.02406 -77.12343 56 ft 15 kts 334°
2026-04-20 15:25 -12.02340 -77.12375 53 ft 10 kts 334°
2026-04-20 15:25 -12.02268 -77.12411 48 ft 12 kts 334°
2026-04-20 15:25 -12.02185 -77.12451 49 ft 12 kts 336°
2026-04-20 15:26 -12.02127 -77.12439 50 ft 6 kts 51°
2026-04-20 15:26 -12.02107 -77.12401 52 ft 6 kts 64°
2026-04-20 15:26 -12.02097 -77.12380 49 ft 0 kts 64°
2026-04-20 15:28 -12.02096 -77.12378 50 ft 3 kts 64°
2026-04-20 15:29 -12.02071 -77.12324 53 ft 11 kts 64°
2026-04-20 15:29 -12.02061 -77.12248 56 ft 10 kts 123°
2026-04-20 15:29 -12.02111 -77.12235 55 ft 8 kts 201°
2026-04-20 15:29 -12.02159 -77.12294 53 ft 15 kts 243°
2026-04-20 15:30 -12.02231 -77.12357 52 ft 5 kts 168°
2026-04-20 15:30 -12.02269 -77.12336 52 ft 8 kts 152°
2026-04-20 15:30 -12.02323 -77.12308 55 ft 10 kts 154°
2026-04-20 15:30 -12.02389 -77.12275 57 ft 11 kts 154°
2026-04-20 15:31 -12.02463 -77.12239 65 ft 13 kts 154°
2026-04-20 15:31 -12.02556 -77.12193 69 ft 16 kts 153°
2026-04-20 15:31 -12.02671 -77.12136 68 ft 20 kts 154°
2026-04-20 15:31 -12.02807 -77.12067 67 ft 24 kts 155°
2026-04-20 15:32 -12.02882 -77.11985 84 ft 13 kts 82°
2026-04-20 15:32 -12.02844 -77.11907 89 ft 12 kts 46°
2026-04-20 15:32 -12.02776 -77.11909 88 ft 10 kts 341°
2026-04-20 15:32 -12.02731 -77.11888 90 ft 6 kts 59°
2026-04-20 15:33 -12.02727 -77.11880 89 ft 1 kts 65°
2026-04-20 15:33 -12.02727 -77.11879 89 ft 0 kts 64°
2026-04-20 15:33 -12.02721 -77.11866 90 ft 4 kts 64°
2026-04-20 15:33 -12.02714 -77.11851 89 ft 0 kts 64°
2026-04-20 15:34 -12.02713 -77.11850 89 ft 0 kts 64°